SCP
-0 -0 -0 0 0 0 0 0 0 0 0 0 0 0 0 0 0 0 0 0 0 0 0 0 0 0 0 0 0 0 0 0 0 0 0 0 -0 -0 -0 0 0 0 0
-0 -0 0 0 0 0 0 0 0 0 0 0 0 0 0 0 0 0 0 0 0 0 0 0 0 0 0 0 0 0 0 0 0 0 0 0 0 0 0 0 0 0 0
-0 0 -0 0 0 0 0 0 0 0 0 0 0 0 0 0 0 0 0 0 0 0 0 0 0 0 0 0 0 0 0 0 0 0 0 0 0 0 0 0 0 0 0
-0 -0 -0 -0 0 0 0 0 0 0 0 0 0 0 0 0 0 0 0 0 0 0 0 0 0 0 0 0 0 0 0 0 0 0 0 0 0 0 0 0 0 0 0
-0 -0 -0 0 0 0 0 0 0 0 0 0 0 0 0 0 0 0 0 0 0 0 0 0 0 0 0 0 0 0 0 0 0 0 0 -0 0 0 0 0 0 0 0
-0 -0 0 0 0 0 0 0 0 0 0 0 0 0 0 0 0 0 0 0 0 0 0 0 0 0 0 0 0 0 0 0 0 0 0 0 0 0 0 0 0 0 0
0 0 0 0 0 0 0 0 0 0 0 0 0 0 0 0 0 0 0 0 0 0 0 0 0 0 0 0 0 0 0 0 0 -0 0 0 0 0 0 0 0 0 0
0 0 0 0 0 0 0 0 0 0 0 0 0 0 0 0 0 0 0 0 0 0 0 0 0 0 0 0 0 0 0 -0 0 -0 0 0 0 0 0 0 0 0 0
0 0 0 0 0 0 0 0 0 0 0 0 0 0 0 0 0 0 0 0 0 0 0 0 0 0 0 0 0 0 0 -0 0 0 -0 0 1 1 0 0 0 0 0
0 0 0 0 0 0 0 0 0 0 0 0 0 0 0 0 0 0 0 0 0 0 0 0 0 0 -0 -0 -0 0 -0 -0 -0 -0 0 0 0 0 0 0 0 0 0
0 0 0 0 0 0 0 0 0 0 0 0 0 0 0 0 0 0 0 0 0 0 0 0 -0 -0 -0 -0 -0 -0 -0 0 -0 0 0 1 0 0 0 0 0 0 0
0 0 0 0 0 0 0 0 0 0 0 0 0 0 0 0 0 0 0 0 0 0 0 0 -0 -0 0 0 0 -0 0 -0 0 0 0 0 0 0 0 0 0 0 0
0 0 0 0 0 0 0 0 0 0 0 0 0 0 0 0 0 0 0 0 0 0 0 0 0 0 0 0 0 0 0 -0 0 0 0 0 0 0 0 0 0 0 0
0 1 0 0 0 0 0 0 0 0 0 0 0 0 0 0 0 0 0 0 0 0 0 0 0 0 0 0 0 0 -0 -0 0 0 0 0 0 0 0 0 0 0 0
0 0 1 1 1 0 0 0 0 0 0 0 0 0 0 0 0 0 0 -0 0 0 0 0 0 0 0 0 0 0 -0 -0 0 0 0 0 0 0 0 0 0 0 0
0 0 1 1 1 1 0 0 0 0 0 0 0 0 0 0 0 0 0 0 0 0 0 0 0 0 0 0 0 0 0 0 0 0 0 0 0 0 0 0 0 0 0
0 0 1 2 2 1 1 0 0 0 0 0 0 0 0 0 0 0 0 0 0 0 -0 0 0 0 0 0 0 0 0 0 0 0 0 0 0 0 0 0 0 0 0
0 0 1 1 1 2 1 1 0 0 0 0 0 0 0 0 0 0 0 0 0 0 0 0 0 0 0 0 0 0 0 0 0 0 0 0 0 0 0 0 0 0 0
0 0 1 1 1 1 1 1 0 0 0 0 0 0 0 0 0 0 0 0 0 0 0 0 0 0 0 0 0 0 0 0 0 0 0 0 0 0 0 0 0 0 0
0 0 1 1 1 2 1 1 1 1 1 0 0 0 0 0 0 0 0 0 0 0 0 0 0 0 -0 0 -0 0 0 0 0 0 0 0 0 0 0 0 0 0 0
0 1 1 1 1 1 1 1 1 1 0 0 0 0 0 0 0 0 0 0 0 0 0 0 0 0 0 0 0 0 0 0 0 0 0 0 0 0 0 0 0 0 0
0 1 0 1 1 0 0 0 0 1 1 0 0 0 0 0 0 0 0 0 0 0 0 0 0 -0 0 0 0 0 0 0 0 0 0 0 0 0 0 0 0 0 0
1 1 1 1 1 0 0 0 1 1 1 0 0 0 0 0 0 0 0 0 0 0 0 0 0 0 -0 0 0 0 0 0 0 0 0 0 0 0 0 0 0 0 0
1 1 1 1 2 1 0 1 1 0 0 0 0 0 0 0 0 0 0 0 0 0 0 0 0 0 0 0 0 0 0 0 0 0 0 0 0 0 0 0 0 0 0
2 1 1 2 2 1 0 1 0 0 0 0 0 0 0 0 0 -0 0 0 0 0 0 0 0 0 0 0 0 0 0 0 0 0 0 0 0 0 0 0 0 0 0
2 2 1 1 2 1 1 1 1 0 0 0 0 0 0 0 0 0 -0 0 0 0 0 0 0 0 0 -0 0 0 0 0 0 0 0 0 0 0 0 0 0 0 0
Wind_Speed_500mb
13 9 6 7 1 6 8 5 4 5 9 13 15 17 16 14 12 8 6 4 6 6 6 5 4 11 15 17 18 17 17 17 15 10 10 13 15 38 17 22 29 34 35
13 8 10 9 9 9 9 8 7 8 10 12 14 14 12 10 8 6 7 5 6 9 9 9 5 5 9 12 19 22 24 23 21 17 13 10 6 10 12 13 14 21 42
16 9 15 13 13 11 11 7 6 9 10 10 10 9 6 5 4 5 6 9 10 11 10 8 7 4 7 10 10 17 25 26 25 21 16 11 11 9 12 14 17 13 14
17 15 5 12 13 11 9 5 3 4 6 6 4 1 1 2 3 5 7 8 9 9 10 10 7 4 2 7 9 9 16 26 26 23 20 9 17 17 17 15 15 15 15
21 15 4 10 13 13 10 6 3 2 2 3 3 4 4 5 7 8 9 11 11 10 11 12 11 9 6 3 6 9 10 16 23 23 18 20 21 23 18 16 11 10 16
16 14 12 12 14 15 13 10 7 6 6 6 5 5 7 7 9 10 11 12 11 10 9 9 10 12 11 9 6 7 10 8 11 15 20 18 16 19 19 21 25 23 20
18 13 13 11 13 15 15 14 11 10 8 8 6 6 6 7 9 12 13 14 14 13 10 7 7 9 11 13 12 6 5 6 15 14 21 21 22 28 24 24 24 21 18
17 15 5 7 11 15 16 16 14 12 10 9 6 4 2 2 5 9 11 13 13 14 14 13 10 8 7 8 11 8 3 13 18 3 16 16 25 29 29 28 23 19 18
17 18 13 11 7 11 14 15 14 12 10 7 4 3 1 2 7 10 11 13 15 15 15 13 13 12 8 4 9 9 10 18 17 5 8 23 26 29 26 28 25 21 18
18 16 12 15 10 8 5 10 12 11 9 9 7 5 5 10 21 16 10 10 17 15 14 12 12 12 13 8 9 9 16 23 6 13 20 9 6 20 21 24 24 20 16
21 20 17 14 14 11 12 4 5 9 10 11 10 13 9 9 10 9 12 17 15 13 11 13 15 17 17 18 19 14 12 2 0 16 19 11 9 17 19 19 17 15 12
24 22 21 20 19 17 14 17 9 2 8 3 2 4 8 4 6 8 7 20 15 20 17 24 23 17 20 6 13 9 10 5 11 12 13 10 17 18 17 16 12 9 11
20 22 23 22 23 21 16 14 10 9 9 6 4 4 6 3 4 8 9 16 15 21 9 15 15 11 4 1 4 8 4 9 17 14 12 10 16 17 15 12 10 11 13
22 24 26 25 26 24 19 18 18 12 8 6 8 5 4 4 4 2 4 5 7 7 9 9 7 8 2 4 4 4 8 7 11 13 7 12 21 17 14 14 14 15 16
21 24 28 31 32 28 27 21 20 14 10 11 10 9 4 3 2 1 5 3 5 5 9 8 6 3 2 3 1 5 9 12 3 2 5 7 17 17 16 17 17 15 14
25 28 32 33 35 29 27 28 19 17 13 12 11 12 7 5 3 2 4 5 6 6 7 6 5 1 2 3 3 5 10 12 12 10 10 8 9 21 24 24 23 22 18
16 22 27 32 33 33 30 28 19 13 11 15 14 20 11 8 9 8 6 4 9 8 7 8 4 3 1 1 5 3 6 11 14 15 13 15 12 12 10 20 27 23 22
10 9 23 27 32 34 29 27 21 17 15 17 17 17 15 13 12 6 8 10 12 5 6 6 3 4 3 4 7 8 7 10 12 12 16 16 14 17 19 17 15 24 22
11 11 12 29 31 32 32 26 24 20 19 18 20 20 21 19 17 8 7 11 9 8 7 4 5 6 6 6 8 12 12 13 14 13 14 15 17 18 12 17 22 26 26
9 11 12 23 32 36 30 27 22 21 20 17 22 23 25 20 20 17 8 14 8 9 8 8 5 6 7 7 6 9 13 14 15 16 17 16 14 14 17 18 22 25 31
5 11 16 23 30 32 33 29 27 24 19 17 24 27 28 22 21 20 12 14 10 10 12 8 6 8 5 7 6 8 12 18 20 19 19 18 20 20 19 22 25 21 28
6 9 16 21 26 30 26 24 22 22 20 15 22 27 29 26 23 22 17 14 16 12 16 13 11 8 8 8 9 11 19 22 23 21 23 23 25 27 23 21 30 26 26
10 10 15 21 25 27 26 25 28 24 24 16 24 26 27 29 26 25 22 17 19 17 15 16 13 14 14 9 15 15 13 13 16 20 27 27 31 35 37 37 36 34 30
16 17 16 19 23 23 29 25 28 20 19 14 19 22 24 26 26 26 26 23 22 17 16 19 18 19 18 15 15 11 15 22 19 18 16 28 28 26 23 28 27 30 30
14 14 18 21 22 21 24 31 26 26 22 24 19 24 28 24 26 26 28 27 25 23 20 26 20 23 20 20 21 17 22 18 24 22 28 25 24 28 28 26 25 27 27
13 14 18 23 24 21 22 22 34 25 22 22 17 26 24 22 26 31 27 31 32 26 24 23 23 25 26 26 24 26 25 25 27 32 33 34 35 32 28 29 32 32 32
Wind_Direction_500mb
116 6 24 10 60 144 152 170 241 283 288 311 312 318 322 326 330 340 335 1 4 353 345 351 262 263 252 239 225 210 206 202 193 182 159 171 184 200 216 213 216 218 213
123 105 39 40 101 128 144 177 207 248 274 290 304 314 317 318 322 335 329 347 333 333 337 345 351 300 274 250 233 221 213 211 209 209 183 166 184 191 191 187 206 214 203
111 118 72 61 81 120 137 154 187 228 272 290 300 303 306 314 333 351 342 340 339 343 340 341 350 336 301 299 267 241 229 220 215 203 191 197 202 238 208 188 172 187 169
116 101 116 57 80 95 108 133 157 231 276 296 295 263 34 48 25 0 357 0 3 3 0 358 4 1 298 294 290 257 239 234 222 211 186 174 217 259 215 198 187 172 174
114 129 97 74 85 89 93 91 67 1 351 25 53 51 70 65 51 40 34 35 32 31 24 16 14 21 26 344 297 288 260 242 229 213 207 219 213 239 229 203 180 189 190
121 133 91 87 87 83 78 72 60 49 61 73 65 65 77 66 53 39 31 26 25 24 24 15 11 8 10 8 350 286 262 240 223 210 216 229 197 219 238 198 181 184 188
127 148 112 97 98 92 86 81 83 91 102 91 88 91 72 46 32 23 16 13 12 4 2 3 357 355 356 2 358 331 259 191 158 211 220 217 220 228 234 199 193 189 189
138 143 206 129 108 95 89 85 82 89 95 99 95 92 93 50 15 358 352 355 350 352 347 344 347 343 332 355 358 6 130 150 125 1 213 218 203 214 221 198 196 197 202
157 158 151 155 124 110 91 83 76 79 89 79 87 102 113 1 354 342 328 336 337 333 337 339 344 353 349 18 24 37 100 134 131 227 191 177 211 225 202 200 210 211 210
169 173 174 183 180 169 114 75 73 74 86 73 53 40 40 34 15 9 341 294 320 321 328 335 348 6 21 32 49 67 108 124 112 192 171 167 169 182 178 188 195 199 206
188 189 188 186 203 175 207 169 96 76 62 46 24 27 48 15 329 309 296 286 308 313 343 2 8 43 37 32 24 77 98 40 249 136 144 206 195 170 167 172 179 189 215
200 201 200 196 198 189 191 245 169 255 6 352 236 257 35 227 195 201 324 353 0 8 24 10 19 37 19 314 310 8 358 253 178 193 205 175 183 163 164 171 186 230 265
225 224 216 209 202 204 188 210 201 217 219 229 215 140 276 171 290 6 313 354 338 352 358 342 332 352 310 123 292 278 227 185 193 159 236 206 184 174 183 200 236 259 273
245 228 234 223 216 199 198 202 215 197 220 240 245 282 326 58 322 179 239 321 345 296 327 327 319 283 341 318 318 223 198 224 202 154 222 262 204 195 209 228 244 259 271
271 246 236 227 220 209 206 215 208 204 234 229 256 256 219 188 229 2 293 319 318 329 326 329 323 275 236 294 176 189 185 199 218 137 242 240 233 217 225 234 244 249 271
279 260 242 229 222 218 215 214 211 209 224 235 242 251 235 170 240 266 298 290 297 314 323 335 287 162 265 218 248 169 175 198 206 239 194 245 281 261 254 245 242 247 263
292 263 236 223 217 218 223 227 215 223 237 241 238 234 222 208 277 188 285 306 291 297 327 332 333 319 332 300 240 208 199 201 205 218 234 227 261 255 298 272 254 260 272
344 264 218 212 212 218 217 222 215 226 230 241 232 240 234 237 226 285 306 294 266 295 307 304 275 273 253 241 226 222 224 218 206 215 216 223 242 246 292 287 286 277 264
44 46 191 191 199 209 211 216 211 221 232 244 231 235 235 225 238 237 262 278 289 278 286 273 273 269 261 269 237 213 216 213 216 223 211 226 244 241 264 256 296 294 275
88 106 160 176 189 198 206 211 217 224 229 238 229 228 230 228 235 244 261 257 266 269 266 244 240 261 245 275 258 230 217 217 228 232 233 230 232 242 253 253 281 295 290
118 145 164 181 195 195 198 204 211 220 226 230 222 227 227 225 234 240 255 265 274 252 244 260 269 286 230 286 257 234 232 231 225 231 234 240 243 254 256 255 271 266 283
218 182 175 191 202 198 204 208 219 226 228 232 226 227 228 230 230 240 244 250 255 245 267 253 248 234 257 264 285 290 266 217 236 238 232 247 257 257 265 265 261 265 270
244 241 209 193 203 199 200 206 214 217 216 242 226 224 230 228 227 238 239 235 244 247 252 267 251 243 261 246 255 276 308 15 326 253 235 241 252 254 259 272 266 275 268
252 237 232 213 208 206 207 218 221 224 234 239 235 230 228 226 228 229 241 237 236 240 249 256 256 240 266 266 251 241 263 287 298 297 268 266 255 266 275 271 264 263 261
255 253 238 224 222 210 227 206 235 237 253 250 242 229 225 231 233 229 231 232 234 242 243 252 243 254 248 261 269 284 267 268 271 267 286 289 274 275 273 267 270 267 261
261 254 247 236 229 235 236 244 227 236 249 253 248 234 235 234 237 239 222 231 236 240 246 253 259 255 256 244 261 273 292 295 288 286 282 290 290 283 278 271 273 270 268
Wind_Speed_850mb
13 9 6 7 1 6 8 5 4 5 9 13 15 17 16 14 12 8 6 4 6 6 6 5 4 11 15 17 18 17 17 17 15 10 10 13 15 38 17 22 29 34 35
13 8 10 9 9 9 9 8 7 8 10 12 14 14 12 10 8 6 7 5 6 9 9 9 5 5 9 12 19 22 24 23 21 17 13 10 6 10 12 13 14 21 42
16 9 15 13 13 11 11 7 6 9 10 10 10 9 6 5 4 5 6 9 10 11 10 8 7 4 7 10 10 17 25 26 25 21 16 11 11 9 12 14 17 13 14
17 15 5 12 13 11 9 5 3 4 6 6 4 1 1 2 3 5 7 8 9 9 10 10 7 4 2 7 9 9 16 26 26 23 20 9 17 17 17 15 15 15 15
21 15 4 10 13 13 10 6 3 2 2 3 3 4 4 5 7 8 9 11 11 10 11 12 11 9 6 3 6 9 10 16 23 23 18 20 21 23 18 16 11 10 16
16 14 12 12 14 15 13 10 7 6 6 6 5 5 7 7 9 10 11 12 11 10 9 9 10 12 11 9 6 7 10 8 11 15 20 18 16 19 19 21 25 23 20
18 13 13 11 13 15 15 14 11 10 8 8 6 6 6 7 9 12 13 14 14 13 10 7 7 9 11 13 12 6 5 6 15 14 21 21 22 28 24 24 24 21 18
17 15 5 7 11 15 16 16 14 12 10 9 6 4 2 2 5 9 11 13 13 14 14 13 10 8 7 8 11 8 3 13 18 3 16 16 25 29 29 28 23 19 18
17 18 13 11 7 11 14 15 14 12 10 7 4 3 1 2 7 10 11 13 15 15 15 13 13 12 8 4 9 9 10 18 17 5 8 23 26 29 26 28 25 21 18
18 16 12 15 10 8 5 10 12 11 9 9 7 5 5 10 21 16 10 10 17 15 14 12 12 12 13 8 9 9 16 23 6 13 20 9 6 20 21 24 24 20 16
21 20 17 14 14 11 12 4 5 9 10 11 10 13 9 9 10 9 12 17 15 13 11 13 15 17 17 18 19 14 12 2 0 16 19 11 9 17 19 19 17 15 12
24 22 21 20 19 17 14 17 9 2 8 3 2 4 8 4 6 8 7 20 15 20 17 24 23 17 20 6 13 9 10 5 11 12 13 10 17 18 17 16 12 9 11
20 22 23 22 23 21 16 14 10 9 9 6 4 4 6 3 4 8 9 16 15 21 9 15 15 11 4 1 4 8 4 9 17 14 12 10 16 17 15 12 10 11 13
22 24 26 25 26 24 19 18 18 12 8 6 8 5 4 4 4 2 4 5 7 7 9 9 7 8 2 4 4 4 8 7 11 13 7 12 21 17 14 14 14 15 16
21 24 28 31 32 28 27 21 20 14 10 11 10 9 4 3 2 1 5 3 5 5 9 8 6 3 2 3 1 5 9 12 3 2 5 7 17 17 16 17 17 15 14
25 28 32 33 35 29 27 28 19 17 13 12 11 12 7 5 3 2 4 5 6 6 7 6 5 1 2 3 3 5 10 12 12 10 10 8 9 21 24 24 23 22 18
16 22 27 32 33 33 30 28 19 13 11 15 14 20 11 8 9 8 6 4 9 8 7 8 4 3 1 1 5 3 6 11 14 15 13 15 12 12 10 20 27 23 22
10 9 23 27 32 34 29 27 21 17 15 17 17 17 15 13 12 6 8 10 12 5 6 6 3 4 3 4 7 8 7 10 12 12 16 16 14 17 19 17 15 24 22
11 11 12 29 31 32 32 26 24 20 19 18 20 20 21 19 17 8 7 11 9 8 7 4 5 6 6 6 8 12 12 13 14 13 14 15 17 18 12 17 22 26 26
9 11 12 23 32 36 30 27 22 21 20 17 22 23 25 20 20 17 8 14 8 9 8 8 5 6 7 7 6 9 13 14 15 16 17 16 14 14 17 18 22 25 31
5 11 16 23 30 32 33 29 27 24 19 17 24 27 28 22 21 20 12 14 10 10 12 8 6 8 5 7 6 8 12 18 20 19 19 18 20 20 19 22 25 21 28
6 9 16 21 26 30 26 24 22 22 20 15 22 27 29 26 23 22 17 14 16 12 16 13 11 8 8 8 9 11 19 22 23 21 23 23 25 27 23 21 30 26 26
10 10 15 21 25 27 26 25 28 24 24 16 24 26 27 29 26 25 22 17 19 17 15 16 13 14 14 9 15 15 13 13 16 20 27 27 31 35 37 37 36 34 30
16 17 16 19 23 23 29 25 28 20 19 14 19 22 24 26 26 26 26 23 22 17 16 19 18 19 18 15 15 11 15 22 19 18 16 28 28 26 23 28 27 30 30
14 14 18 21 22 21 24 31 26 26 22 24 19 24 28 24 26 26 28 27 25 23 20 26 20 23 20 20 21 17 22 18 24 22 28 25 24 28 28 26 25 27 27
13 14 18 23 24 21 22 22 34 25 22 22 17 26 24 22 26 31 27 31 32 26 24 23 23 25 26 26 24 26 25 25 27 32 33 34 35 32 28 29 32 32 32
Wind_Direction_850mb
116 6 24 10 60 144 152 170 241 283 288 311 312 318 322 326 330 340 335 1 4 353 345 351 262 263 252 239 225 210 206 202 193 182 159 171 184 200 216 213 216 218 213
123 105 39 40 101 128 144 177 207 248 274 290 304 314 317 318 322 335 329 347 333 333 337 345 351 300 274 250 233 221 213 211 209 209 183 166 184 191 191 187 206 214 203
111 118 72 61 81 120 137 154 187 228 272 290 300 303 306 314 333 351 342 340 339 343 340 341 350 336 301 299 267 241 229 220 215 203 191 197 202 238 208 188 172 187 169
116 101 116 57 80 95 108 133 157 231 276 296 295 263 34 48 25 0 357 0 3 3 0 358 4 1 298 294 290 257 239 234 222 211 186 174 217 259 215 198 187 172 174
114 129 97 74 85 89 93 91 67 1 351 25 53 51 70 65 51 40 34 35 32 31 24 16 14 21 26 344 297 288 260 242 229 213 207 219 213 239 229 203 180 189 190
121 133 91 87 87 83 78 72 60 49 61 73 65 65 77 66 53 39 31 26 25 24 24 15 11 8 10 8 350 286 262 240 223 210 216 229 197 219 238 198 181 184 188
127 148 112 97 98 92 86 81 83 91 102 91 88 91 72 46 32 23 16 13 12 4 2 3 357 355 356 2 358 331 259 191 158 211 220 217 220 228 234 199 193 189 189
138 143 206 129 108 95 89 85 82 89 95 99 95 92 93 50 15 358 352 355 350 352 347 344 347 343 332 355 358 6 130 150 125 1 213 218 203 214 221 198 196 197 202
157 158 151 155 124 110 91 83 76 79 89 79 87 102 113 1 354 342 328 336 337 333 337 339 344 353 349 18 24 37 100 134 131 227 191 177 211 225 202 200 210 211 210
169 173 174 183 180 169 114 75 73 74 86 73 53 40 40 34 15 9 341 294 320 321 328 335 348 6 21 32 49 67 108 124 112 192 171 167 169 182 178 188 195 199 206
188 189 188 186 203 175 207 169 96 76 62 46 24 27 48 15 329 309 296 286 308 313 343 2 8 43 37 32 24 77 98 40 249 136 144 206 195 170 167 172 179 189 215
200 201 200 196 198 189 191 245 169 255 6 352 236 257 35 227 195 201 324 353 0 8 24 10 19 37 19 314 310 8 358 253 178 193 205 175 183 163 164 171 186 230 265
225 224 216 209 202 204 188 210 201 217 219 229 215 140 276 171 290 6 313 354 338 352 358 342 332 352 310 123 292 278 227 185 193 159 236 206 184 174 183 200 236 259 273
245 228 234 223 216 199 198 202 215 197 220 240 245 282 326 58 322 179 239 321 345 296 327 327 319 283 341 318 318 223 198 224 202 154 222 262 204 195 209 228 244 259 271
271 246 236 227 220 209 206 215 208 204 234 229 256 256 219 188 229 2 293 319 318 329 326 329 323 275 236 294 176 189 185 199 218 137 242 240 233 217 225 234 244 249 271
279 260 242 229 222 218 215 214 211 209 224 235 242 251 235 170 240 266 298 290 297 314 323 335 287 162 265 218 248 169 175 198 206 239 194 245 281 261 254 245 242 247 263
292 263 236 223 217 218 223 227 215 223 237 241 238 234 222 208 277 188 285 306 291 297 327 332 333 319 332 300 240 208 199 201 205 218 234 227 261 255 298 272 254 260 272
344 264 218 212 212 218 217 222 215 226 230 241 232 240 234 237 226 285 306 294 266 295 307 304 275 273 253 241 226 222 224 218 206 215 216 223 242 246 292 287 286 277 264
44 46 191 191 199 209 211 216 211 221 232 244 231 235 235 225 238 237 262 278 289 278 286 273 273 269 261 269 237 213 216 213 216 223 211 226 244 241 264 256 296 294 275
88 106 160 176 189 198 206 211 217 224 229 238 229 228 230 228 235 244 261 257 266 269 266 244 240 261 245 275 258 230 217 217 228 232 233 230 232 242 253 253 281 295 290
118 145 164 181 195 195 198 204 211 220 226 230 222 227 227 225 234 240 255 265 274 252 244 260 269 286 230 286 257 234 232 231 225 231 234 240 243 254 256 255 271 266 283
218 182 175 191 202 198 204 208 219 226 228 232 226 227 228 230 230 240 244 250 255 245 267 253 248 234 257 264 285 290 266 217 236 238 232 247 257 257 265 265 261 265 270
244 241 209 193 203 199 200 206 214 217 216 242 226 224 230 228 227 238 239 235 244 247 252 267 251 243 261 246 255 276 308 15 326 253 235 241 252 254 259 272 266 275 268
252 237 232 213 208 206 207 218 221 224 234 239 235 230 228 226 228 229 241 237 236 240 249 256 256 240 266 266 251 241 263 287 298 297 268 266 255 266 275 271 264 263 261
255 253 238 224 222 210 227 206 235 237 253 250 242 229 225 231 233 229 231 232 234 242 243 252 243 254 248 261 269 284 267 268 271 267 286 289 274 275 273 267 270 267 261
261 254 247 236 229 235 236 244 227 236 249 253 248 234 235 234 237 239 222 231 236 240 246 253 259 255 256 244 261 273 292 295 288 286 282 290 290 283 278 271 273 270 268